Location: Gipe Farm
(40.9466°N, 95.5370°W)
Time: 07:51:30
(UTC-05:00)

Cosmos 1842 - Visible Passes

Search period start: 05 July 2015 00:00
Search period end: 15 July 2015 00:00
Orbit: 530 x 546 km, 82.5° (Epoch: 05 July)

Date Brightness Start Highest point End Pass type
(mag) Time Alt. Az. Time Alt. Az. Time Alt. Az.
05 Jul 5.8 04:28:52 10° NNE 04:31:56 22° ENE 04:35:02 10° SE visible
06 Jul 5.8 04:20:53 10° NNE 04:23:56 22° ENE 04:27:02 10° SE visible
07 Jul 5.8 04:12:54 10° NNE 04:15:56 21° ENE 04:19:01 10° SE visible
08 Jul 5.8 04:04:54 10° NNE 04:07:55 21° ENE 04:11:01 10° SE visible
09 Jul 5.7 03:56:54 10° NNE 03:59:55 21° ENE 04:03:00 10° SE visible
10 Jul 5.7 03:48:54 10° NNE 03:51:54 21° ENE 03:54:58 10° SE visible
10 Jul 4.4 05:24:51 10° NW 05:28:06 25° W 05:31:16 10° SW visible
11 Jul 5.7 03:40:54 10° NNE 03:43:53 21° ENE 03:46:56 10° SE visible
11 Jul 4.4 05:16:49 10° NW 05:20:05 25° W 05:23:16 10° SW visible
12 Jul 5.6 03:32:53 10° NNE 03:35:52 21° ENE 03:38:55 10° SE visible
12 Jul 4.4 05:08:48 10° NW 05:12:04 25° W 05:15:15 10° SW visible
13 Jul 5.6 03:24:52 10° NNE 03:27:50 21° ENE 03:30:52 10° SE visible
13 Jul 4.4 05:00:46 10° NW 05:04:02 25° W 05:06:51 12° SW visible
14 Jul 5.6 03:16:50 10° NNE 03:19:48 21° ENE 03:22:49 10° ESE visible
14 Jul 4.4 04:52:43 10° NW 04:56:00 25° W 04:58:15 15° SW visible
